Location: Lansingburgh
(42.7845°N, 73.6696°W)
Time: 20:41:55
(UTC+00:00)

Daily predictions for brighter satellites

Satellite Brightness Start Highest point End
(mag) Time Altitude Azimuth Time Altitude Azimuth Time Altitude Azimuth
Nadezhda 3 Rocket 4.0 22:15:15 10° N 22:21:35 77° E 22:27:56 10° SSE
ATLAS CENTAUR R/B 4.3 22:16:58 10° W 22:22:06 45° NNW 22:35:26 10° NE
Cosmos 2333 Rocket 3.6 22:17:14 10° NW 22:22:40 46° WSW 22:28:02 10° S
Cosmos 1812 Rocket 3.6 22:22:03 10° N 22:26:33 81° E 22:31:01 10° S
Atlas Centaur 2 4.1 22:24:56 10° S 22:26:38 12° SSE 22:28:28 10° SE
H-2A ROCKET BODY 4.2 22:12:33 10° WSW 22:26:41 29° SSW 22:31:13 10° SE
CORIOLIS 4.1 22:22:52 10° SSE 22:28:14 82° ENE 22:33:37 10° NNW
SL-14 R/B 4.5 22:29:39 10° SSW 22:33:29 45° WNW 22:37:18 10° N
ERBS 3.3 22:30:47 10° WSW 22:33:57 41° NW 22:37:08 10° NE
H-2A R/B 3.4 22:30:20 10° S 22:34:07 62° W 22:38:00 10° NNW
YAOGAN 1 3.6 22:31:05 10° ESE 22:34:30 23° ENE 22:37:57 10° NNE
CZ-4C R/B 3.6 22:27:36 10° NW 22:34:55 66° WSW 22:43:08 10° SSE
SL-16 R/B 2.9 22:30:08 10° N 22:35:13 32° NE 22:40:16 10° ESE
Cosmos 1242 Rocket 4.4 22:32:55 10° SW 22:36:05 31° WNW 22:39:19 10° N
SL-8 Rocket 4.3 22:31:55 10° SSE 22:37:51 46° E 22:43:47 10° NNE
Cosmos 1340 Rocket 3.2 22:34:33 10° NNW 22:38:32 69° W 22:42:29 10° S
Cosmos 2219 3.4 22:35:26 10° SSW 22:41:02 77° WNW 22:46:42 10° NNE
Cosmos 2082 4.1 22:36:43 10° S 22:41:57 42° ESE 22:47:13 10° NE
USA 234 3.3 22:40:54 10° SE 22:47:27 89° NE 22:54:01 10° NW
Cosmos 2297 Rocket 2.2 22:43:49 10° SSW 22:49:29 88° ESE 22:55:11 10° NNE
SL-8 R/B 3.7 22:44:51 10° WSW 22:49:41 89° SE 22:53:51 14° ENE
Cosmos 2341 Rocket 4.0 22:44:36 10° S 22:50:59 80° E 22:57:20 10° N
Cosmos 2251 Rocket 4.1 22:47:16 10° N 22:52:06 34° ENE 22:56:56 10° SE
Cosmos 1980 4.1 22:48:52 10° NNW 22:54:32 68° WSW 23:00:09 10° SSE
Meteor 1-21 Rocket 4.2 22:51:31 10° S 22:57:07 88° E 23:02:52 10° N
Meteor 2-10 Rocket 3.5 22:53:53 10° N 22:59:05 56° ENE 23:04:04 10° SSE
USA 32 4.1 22:54:05 10° S 22:59:19 85° W 23:04:35 10° N
Cosmos 2263 Rocket 4.1 22:59:46 10° ESE 23:00:06 10° ESE 23:00:06 10° ESE
Cosmos 2227 Rocket 2.3 22:56:44 10° SSW 23:02:23 81° WNW 23:08:05 10° NNE
YAOGAN 6 2.7 23:00:38 10° S 23:04:18 79° WSW 23:07:58 10° NNW
Cosmos 1953 Rocket 3.5 23:00:05 10° S 23:04:31 68° E 23:09:00 10° NNE
NOAA 11 4.4 22:59:20 10° SE 23:04:34 47° ENE 23:09:49 10° N
FengYun 1-2 T 4.3 23:00:13 10° SSE 23:05:51 87° ENE 23:11:33 10° NNW
COSMO-SKYMED 1 2.5 23:03:00 10° NNE 23:07:22 85° E 23:11:43 10° SSW
BREEZE-M DEB (TANK) 2.2 23:05:30 10° WSW 23:07:49 62° NNW 23:09:00 25° NE
Cosmos 1758 Rocket 4.0 23:04:48 10° SSW 23:09:03 62° W 23:13:21 10° N
Cosmos 1703 3.3 23:05:37 10° S 23:09:29 57° E 23:13:24 10° NNE
Cosmos 1842 Rocket 4.5 23:06:35 10° NNE 23:10:24 27° ENE 23:14:12 10° SE
Envisat 3.8 23:06:44 10° S 23:11:42 54° W 23:16:42 10° NNW
ADEOS Rocket 3.9 23:08:10 10° NNE 23:14:23 37° E 23:21:07 10° SSE
Cosmos 864 Rocket 4.4 23:09:10 10° S 23:15:13 67° E 23:21:19 10° NNE
Cosmos 1339 Rocket 4.4 23:10:23 10° N 23:16:29 77° E 23:22:38 10° SSE
DELTA 2 R/B (1) 3.9 23:11:48 10° W 23:17:20 63° S 23:21:16 19° ESE
Cosmos 2218 Rocket 4.0 23:11:11 10° S 23:17:30 78° E 23:23:55 10° N
Cosmos 1939 Rocket 3.0 23:14:00 10° SE 23:17:44 46° ENE 23:21:34 10° N
Cosmos 44 3.3 23:14:23 10° SW 23:18:59 71° NW 23:22:41 15° NNE
Shenzhou-11 Module 1.5 23:16:40 10° W 23:19:21 83° S 23:19:56 50° E
CSL-04 Debris 4.1 23:27:35 10° SSE 23:32:58 86° ENE 23:38:25 10° NNW
CZ-2D R/B 3.1 23:33:55 10° SSE 23:37:44 82° ENE 23:41:36 10° N
Cosmos 1455 3.1 23:34:05 10° NNW 23:37:46 49° W 23:41:25 10° S
ISS -2.5 23:38:10 10° W 23:41:15 31° NNW 23:41:53 29° N
USA 116 3.6 23:43:22 25° N 23:44:58 58° WNW 23:48:01 10° SSW
Cosmos 2366 rocket 4.4 23:42:16 10° SSW 23:48:26 66° W 23:54:42 10° N
Meteor 2-12 Rocket 4.3 23:43:20 10° S 23:49:20 73° E 23:55:22 10° NNE
FALCON 9 R/B 4.0 23:35:36 10° SW 23:51:26 33° S 23:55:00 22° SE
Cosmos 44 Rocket 3.5 23:48:44 10° S 23:53:17 47° ESE 23:53:17 47° ESE
CZ-4 R/B 3.0 23:50:08 10° SSW 23:53:53 36° W 23:57:44 10° NNW
Cosmos 2221 3.4 23:50:32 10° N 23:53:03 33° NNE 23:53:03 33° NNE
